GW5791 Weather Reports


Display with metric or nautical units.
time (UTC)temp
F
wind
direction
speed
MPH
gust
MPH
rain 1hr
in
rain 24hr
in
rain mn
in
humidity
%
barometer
mb
20260508033103 62 122 1.0 3.0 0.00 0.00 0.00 23 831.3
20260508032604 62 140 1.0 2.0 0.00 0.00 0.00 21 831.2
20260508032104 62 68 1.0 2.0 0.00 0.00 0.00 21 831.1
20260508031604 62 118 1.0 2.0 0.00 0.00 0.00 21 831.0
20260508031104 63 183 1.0 5.0 0.00 0.00 0.00 21 830.9
20260508030604 64 343 1.0 5.0 0.00 0.00 0.00 20 830.9
20260508030104 64 125 0.0 2.0 0.00 0.00 0.00 20 830.8
20260508025604 64 80 0.0 1.0 0.00 0.00 0.00 19 830.7
20260508025104 64 344 1.0 5.0 0.00 0.00 0.00 20 830.8
20260508024604 65 44 1.0 3.0 0.00 0.00 0.00 20 830.7
20260508024104 65 48 0.0 2.0 0.00 0.00 0.00 19 830.7
20260508023104 67 51 1.0 2.0 0.00 0.00 0.00 18 830.5
20260508022604 68 41 1.0 2.0 0.00 0.00 0.00 16 830.5
20260508022104 69 13 0.0 2.0 0.00 0.00 0.00 15 830.4
20260508021604 69 191 1.0 3.0 0.00 0.00 0.00 15 830.3
20260508021104 69 192 1.0 2.0 0.00 0.00 0.00 15 830.3
20260508020604 70 191 0.0 2.0 0.00 0.00 0.00 15 830.2
20260508014603 71 215 3.0 8.0 0.00 0.00 0.00 13 830.1
20260508014104 71 217 3.0 9.0 0.00 0.00 0.00 13 830.0
20260508013104 72 206 2.0 7.0 0.00 0.00 0.00 13 830.0
20260508012603 72 198 2.0 5.0 0.00 0.00 0.00 13 829.9
20260508012104 72 192 3.0 5.0 0.00 0.00 0.00 13 829.9
20260508011604 73 192 3.0 7.0 0.00 0.00 0.00 13 829.8
20260508011104 73 241 3.0 6.0 0.00 0.00 0.00 13 829.8
20260508010604 73 208 3.0 6.0 0.00 0.00 0.00 13 829.9
20260508010104 73 197 3.0 5.0 0.00 0.00 0.00 12 829.8
20260508005604 73 179 3.0 6.0 0.00 0.00 0.00 12 829.8
20260508005103 73 178 4.0 6.0 0.00 0.00 0.00 12 829.8
20260508004604 73 187 3.0 7.0 0.00 0.00 0.00 12 829.8
20260508004104 74 245 3.0 7.0 0.00 0.00 0.00 12 829.8
20260508003604 74 228 3.0 7.0 0.00 0.00 0.00 12 829.8
20260508003103 74 264 3.0 7.0 0.00 0.00 0.00 12 829.8
20260508002604 74 222 2.0 5.0 0.00 0.00 0.00 12 829.8
20260508002104 74 259 3.0 3.0 0.00 0.00 0.00 12 829.8
20260508001603 74 238 2.0 5.0 0.00 0.00 0.00 11 829.9
20260508001104 74 193 3.0 7.0 0.00 0.00 0.00 11 829.9
20260508000603 74 220 2.0 7.0 0.00 0.00 0.00 11 829.9
20260508000104 74 307 1.0 3.0 0.00 0.00 0.00 11 829.9
20260507234603 74 284 3.0 6.0 0.00 0.00 0.00 11 830.0
20260507234104 74 323 2.0 5.0 0.00 0.00 0.00 12 830.0
20260507233606 74 344 1.0 3.0 0.00 0.00 0.00 11 830.1
20260507233105 73 211 3.0 6.0 0.00 0.00 0.00 11 830.1
20260507232605 74 206 3.0 7.0 0.00 0.00 0.00 11 830.1
20260507232105 74 225 5.0 8.0 0.00 0.00 0.00 11 830.1
20260507231605 74 217 3.0 7.0 0.00 0.00 0.00 11 830.2
20260507231105 74 234 3.0 6.0 0.00 0.00 0.00 11 830.2
20260507230605 73 41 1.0 3.0 0.00 0.00 0.00 11 830.3
20260507225605 73 261 4.0 8.0 0.00 0.00 0.00 11 830.4
20260507224105 73 34 2.0 9.0 0.00 0.00 0.00 11 830.5
20260507223605 73 239 3.0 8.0 0.00 0.00 0.00 12 830.5
20260507223105 73 333 4.0 7.0 0.00 0.00 0.00 11 830.5
20260507222105 73 192 5.0 12.0 0.00 0.00 0.00 12 830.7
20260507220605 72 299 2.0 5.0 0.00 0.00 0.00 14 830.9
20260507220105 71 351 3.0 9.0 0.00 0.00 0.00 14 831.0
20260507215605 71 216 5.0 8.0 0.00 0.00 0.00 12 831.0
20260507215105 71 231 4.0 13.0 0.00 0.00 0.00 13 831.1
20260507214605 71 252 3.0 13.0 0.00 0.00 0.00 14 831.2
20260507214105 71 251 7.0 13.0 0.00 0.00 0.00 14 831.3
20260507213605 70 209 3.0 7.0 0.00 0.00 0.00 14 831.3
20260507213105 70 240 5.0 13.0 0.00 0.00 0.00 15 831.5
20260507211605 70 337 3.0 6.0 0.00 0.00 0.00 15 831.8
20260507211105 69 276 3.0 10.0 0.00 0.00 0.00 16 831.8
20260507210105 69 275 5.0 8.0 0.00 0.00 0.00 16 831.9
20260507205105 69 238 4.0 10.0 0.00 0.00 0.00 16 832.0
20260507204605 69 298 4.0 9.0 0.00 0.00 0.00 16 832.2
20260507204105 69 311 5.0 9.0 0.00 0.00 0.00 17 832.2
20260507203604 68 288 2.0 7.0 0.00 0.00 0.00 16 832.3
20260507203105 68 344 3.0 7.0 0.00 0.00 0.00 18 832.4
20260507202605 68 296 5.0 10.0 0.00 0.00 0.00 17 832.4
20260507201605 67 146 3.0 7.0 0.00 0.00 0.00 17 832.5
20260507201106 67 42 4.0 8.0 0.00 0.00 0.00 18 832.6
20260507200604 66 14 6.0 9.0 0.00 0.00 0.00 19 832.6
20260507200106 67 294 6.0 12.0 0.00 0.00 0.00 18 832.7
20260507195605 67 329 5.0 8.0 0.00 0.00 0.00 19 832.8
20260507195105 66 184 3.0 9.0 0.00 0.00 0.00 19 832.8
20260507194105 66 227 3.0 7.0 0.00 0.00 0.00 22 832.9
20260507193604 65 272 2.0 6.0 0.00 0.00 0.00 23 833.0
20260507192605 65 310 2.0 7.0 0.00 0.00 0.00 23 833.2
20260507192105 64 23 4.0 8.0 0.00 0.00 0.00 24 833.3
20260507191605 65 244 3.0 9.0 0.00 0.00 0.00 24 833.4
20260507191105 65 253 5.0 10.0 0.00 0.00 0.00 24 833.4
20260507190605 65 220 3.0 8.0 0.00 0.00 0.00 23 833.5
20260507190105 64 168 3.0 12.0 0.00 0.00 0.00 24 833.5
20260507185605 64 211 3.0 12.0 0.00 0.00 0.00 24 833.6
20260507185105 63 258 5.0 10.0 0.00 0.00 0.00 25 833.7
20260507184604 64 282 2.0 7.0 0.00 0.00 0.00 25 833.8
20260507184105 63 12 3.0 9.0 0.00 0.00 0.00 25 833.8
20260507183605 63 351 3.0 8.0 0.00 0.00 0.00 26 834.0
20260507183105 62 294 3.0 8.0 0.00 0.00 0.00 26 834.0
20260507182104 62 296 3.0 7.0 0.00 0.00 0.00 26 834.1
20260507181605 62 77 5.0 9.0 0.00 0.00 0.00 26 834.2
20260507181105 61 328 3.0 7.0 0.00 0.00 0.00 27 834.2
20260507180605 61 289 3.0 7.0 0.00 0.00 0.00 27 834.2
20260507173605 60 299 3.0 7.0 0.00 0.00 0.00 31 834.5
20260507172605 60 318 3.0 8.0 0.00 0.00 0.00 32 834.7
20260507172105 59 350 3.0 7.0 0.00 0.00 0.00 29 834.7
20260507171605 59 350 2.0 5.0 0.00 0.00 0.00 30 834.8
20260507171104 58 268 3.0 6.0 0.00 0.00 0.00 31 834.9
20260507170605 58 281 2.0 6.0 0.00 0.00 0.00 31 835.0
20260507165605 58 293 4.0 8.0 0.00 0.00 0.00 31 835.0
20260507165105 57 329 3.0 7.0 0.00 0.00 0.00 32 835.0
20260507164605 57 57 2.0 7.0 0.00 0.00 0.00 35 835.1
20260507164104 56 16 2.0 8.0 0.00 0.00 0.00 35 835.1
20260507163605 56 329 6.0 9.0 0.00 0.00 0.00 36 835.1
20260507163104 56 264 1.0 7.0 0.00 0.00 0.00 36 835.2
20260507162105 55 306 3.0 8.0 0.00 0.00 0.00 39 835.2
20260507161605 55 264 3.0 8.0 0.00 0.00 0.00 40 835.3
20260507161105 54 279 3.0 7.0 0.00 0.00 0.00 41 835.4
20260507160605 54 68 3.0 7.0 0.00 0.00 0.00 41 835.4
20260507160105 54 317 3.0 6.0 0.00 0.00 0.00 42 835.5
20260507155105 53 283 3.0 6.0 0.00 0.00 0.00 45 835.5
20260507154605 53 10 4.0 8.0 0.00 0.00 0.00 45 835.6
20260507153605 52 309 3.0 7.0 0.00 0.00 0.00 45 835.7
20260507153105 52 257 2.0 6.0 0.00 0.00 0.00 47 835.7
20260507152605 51 89 1.0 5.0 0.00 0.00 0.00 47 835.7
20260507151605 50 316 3.0 8.0 0.00 0.00 0.00 50 835.8
20260507150605 49 311 3.0 7.0 0.00 0.00 0.00 49 835.8
20260507150104 49 6 3.0 7.0 0.00 0.00 0.00 51 835.9
20260507145604 48 324 3.0 6.0 0.00 0.00 0.00 52 835.9
20260507145105 48 36 2.0 6.0 0.00 0.00 0.00 53 835.9
20260507144605 47 331 2.0 5.0 0.00 0.00 0.00 53 836.0
20260507144105 47 323 3.0 5.0 0.00 0.00 0.00 54 836.0
20260507143604 46 321 2.0 3.0 0.00 0.00 0.00 53 836.0
20260507141604 45 28 3.0 7.0 0.00 0.00 0.00 58 836.0
20260507141105 45 354 2.0 7.0 0.00 0.00 0.00 59 836.0
20260507140605 44 322 3.0 5.0 0.00 0.00 0.00 59 836.0
20260507135605 43 262 2.0 3.0 0.00 0.00 0.00 62 836.0
20260507135105 43 296 1.0 3.0 0.00 0.00 0.00 63 836.0
20260507134605 43 257 2.0 6.0 0.00 0.00 0.00 62 836.0
20260507134104 42 269 1.0 3.0 0.00 0.00 0.00 60 835.9
20260507133105 42 332 2.0 3.0 0.00 0.00 0.00 60 835.9
20260507132604 41 281 2.0 3.0 0.00 0.00 0.00 54 835.9
20260507131605 40 151 2.0 2.0 0.00 0.00 0.00 55 835.8
20260507131104 39 186 0.0 2.0 0.00 0.00 0.00 57 835.9
20260507130605 38 21 2.0 5.0 0.00 0.00 0.00 60 835.8
20260507130105 38 355 3.0 6.0 0.00 0.00 0.00 63 835.8
20260507125605 37 337 3.0 5.0 0.00 0.00 0.00 64 835.8
20260507125104 37 322 0.0 2.0 0.00 0.00 0.00 66 835.8
20260507124604 36 328 1.0 1.0 0.00 0.00 0.00 68 835.8
20260507124105 36 130 0.0 1.0 0.00 0.00 0.00 68 835.7
20260507123605 37 100 2.0 3.0 0.00 0.00 0.00 69 835.7
20260507123105 36 322 1.0 2.0 0.00 0.00 0.00 71 835.6
20260507122604 36 82 1.0 1.0 0.00 0.00 0.00 71 835.6
20260507122105 37 143 0.0 1.0 0.00 0.00 0.00 71 835.5
20260507121604 37 68 1.0 2.0 0.00 0.00 0.00 70 835.5
20260507121104 37 57 1.0 2.0 0.00 0.00 0.00 70 835.5
20260507120604 37 25 1.0 2.0 0.00 0.00 0.00 71 835.6
20260507115604 37 46 1.0 2.0 0.00 0.00 0.00 74 835.5
20260507114105 38 47 1.0 2.0 0.00 0.00 0.00 71 835.5
20260507113104 38 62 1.0 2.0 0.00 0.00 0.00 71 835.5
20260507112604 38 334 1.0 2.0 0.00 0.00 0.00 70 835.6
20260507111604 38 191 1.0 2.0 0.00 0.00 0.00 69 835.6
20260507111104 38 135 0.0 2.0 0.00 0.00 0.00 68 835.6
20260507110605 38 182 2.0 2.0 0.00 0.00 0.00 67 835.6
20260507110104 38 131 1.0 2.0 0.00 0.00 0.00 66 835.6
20260507105604 38 35 0.0 2.0 0.00 0.00 0.00 65 835.6
20260507105104 38 246 1.0 1.0 0.00 0.00 0.00 65 835.6
20260507104604 39 353 0.0 1.0 0.00 0.00 0.00 61 835.6
20260507103604 40 39 2.0 2.0 0.00 0.00 0.00 58 835.6
20260507103104 41 39 1.0 2.0 0.00 0.00 0.00 58 835.6
20260507102604 41 316 1.0 2.0 0.00 0.00 0.00 56 835.6
20260507101605 42 35 0.0 2.0 0.00 0.00 0.00 52 835.5
20260507101104 43 282 2.0 2.0 0.00 0.00 0.00 51 835.5
20260507100604 43 272 1.0 5.0 0.00 0.00 0.00 48 835.5
20260507100104 42 195 2.0 5.0 0.00 0.00 0.00 47 835.4
20260507095604 42 256 2.0 3.0 0.00 0.00 0.00 46 835.4
20260507095104 42 288 2.0 3.0 0.00 0.00 0.00 46 835.4
20260507094605 42 202 2.0 3.0 0.00 0.00 0.00 48 835.4
20260507094104 42 143 2.0 3.0 0.00 0.00 0.00 48 835.4
20260507093604 42 297 1.0 1.0 0.00 0.00 0.00 46 835.3
20260507093104 42 94 0.0 3.0 0.00 0.00 0.00 45 835.4
20260507092104 43 28 1.0 2.0 0.00 0.00 0.00 46 835.4
20260507091104 43 132 1.0 2.0 0.00 0.00 0.00 46 835.4
20260507090605 43 132 2.0 3.0 0.00 0.00 0.00 45 835.4
20260507085104 45 180 2.0 2.0 0.00 0.00 0.00 40 835.3
20260507084605 45 133 1.0 2.0 0.00 0.00 0.00 39 835.2
20260507084104 45 186 1.0 3.0 0.00 0.00 0.00 38 835.2
20260507083604 46 198 1.0 2.0 0.00 0.00 0.00 38 835.2
20260507083104 46 127 1.0 3.0 0.00 0.00 0.00 38 835.2
20260507082605 46 61 2.0 6.0 0.00 0.00 0.00 38 835.1
20260507082104 46 24 2.0 5.0 0.00 0.00 0.00 38 835.1
20260507081604 46 62 2.0 5.0 0.00 0.00 0.00 39 835.2
20260507080604 46 62 1.0 1.0 0.00 0.00 0.00 37 835.0
20260507080104 46 121 0.0 1.0 0.00 0.00 0.00 36 835.1
20260507075604 47 174 1.0 2.0 0.00 0.00 0.00 38 835.0
20260507074604 47 347 2.0 3.0 0.00 0.00 0.00 36 835.0
20260507074105 47 330 2.0 3.0 0.00 0.00 0.00 34 835.0
20260507073604 48 27 1.0 2.0 0.00 0.00 0.00 37 835.1
20260507073104 48 351 2.0 3.0 0.00 0.00 0.00 35 835.0
20260507072605 48 45 1.0 3.0 0.00 0.00 0.00 35 835.0
20260507072104 48 56 1.0 2.0 0.00 0.00 0.00 36 835.0
20260507071604 48 36 1.0 2.0 0.00 0.00 0.00 35 834.9
20260507071104 49 65 1.0 3.0 0.00 0.00 0.00 34 834.8
20260507065604 49 51 2.0 6.0 0.00 0.00 0.00 33 834.6
20260507065104 49 18 3.0 8.0 0.00 0.00 0.00 34 834.6
20260507064604 49 23 3.0 6.0 0.00 0.00 0.00 36 834.6
20260507064104 49 339 2.0 5.0 0.00 0.00 0.00 37 834.6
20260507063604 49 329 3.0 6.0 0.00 0.00 0.00 38 834.6
20260507063104 48 337 3.0 5.0 0.00 0.00 0.00 39 834.6
20260507062604 48 20 2.0 3.0 0.00 0.00 0.00 43 834.7
20260507062104 49 32 1.0 3.0 0.00 0.00 0.00 44 834.7
20260507061603 49 10 1.0 2.0 0.00 0.00 0.00 42 834.7
20260507060604 50 319 0.0 2.0 0.00 0.00 0.00 40 834.7
20260507060104 51 11 1.0 6.0 0.00 0.00 0.00 39 834.6
20260507055604 51 47 2.0 5.0 0.00 0.00 0.00 40 834.5
20260507055104 51 57 2.0 5.0 0.00 0.00 0.00 41 834.6
20260507054604 51 55 2.0 3.0 0.00 0.00 0.00 42 834.6
20260507054104 51 36 1.0 3.0 0.00 0.00 0.00 42 834.5
20260507053104 52 41 1.0 3.0 0.00 0.00 0.00 43 834.5
20260507052604 52 34 1.0 3.0 0.00 0.00 0.00 43 834.5
20260507051604 53 43 2.0 5.0 0.00 0.00 0.00 44 834.4
20260507050604 53 41 2.0 3.0 0.00 0.00 0.00 44 834.4
20260507050104 54 41 3.0 5.0 0.00 0.00 0.00 43 834.2
20260507045604 54 46 3.0 6.0 0.00 0.00 0.00 43 834.2
20260507045104 54 32 3.0 5.0 0.00 0.00 0.00 43 834.2
20260507044604 54 37 2.0 5.0 0.00 0.00 0.00 42 834.1
20260507044104 54 15 3.0 6.0 0.00 0.00 0.00 42 834.0
20260507043103 54 17 4.0 8.0 0.00 0.00 0.00 45 834.0
20260507042604 54 23 2.0 5.0 0.00 0.00 0.00 46 833.9
20260507042104 54 34 2.0 3.0 0.00 0.00 0.00 46 833.9
20260507041605 54 29 1.0 2.0 0.00 0.00 0.00 45 833.8
20260507041104 55 37 2.0 5.0 0.00 0.00 0.00 45 833.7
20260507040604 55 68 1.0 3.0 0.00 0.00 0.00 45 833.6
20260507040104 55 49 2.0 3.0 0.00 0.00 0.00 44 833.6
20260507035604 55 40 1.0 3.0 0.00 0.00 0.00 44 833.5
20260507035104 55 43 2.0 5.0 0.00 0.00 0.00 44 833.5
20260507034604 56 44 1.0 3.0 0.00 0.00 0.00 44 833.4
20260507034103 56 7 2.0 7.0 0.00 0.00 0.00 43 833.4
20260507033604 56 39 2.0 6.0 0.00 0.00 0.00 43 833.3